Regional Weather Roundup
Issued by NWS Midland/Odessa, TX

Home | Current Version | Previous Version | Text Only | Print | Product List | Glossary On
Versions: 1 2 3 4 5 6 7 8 9 10 11 12 13 14 15 16 17 18 19 20 21 22 23 24 25 26 27 28 29 30 31 32 33 34 35 36 37 38 39 40 41 42 43 44 45 46 47 48 49 50
000
ASUS44 KMAF 180210
RWRMAF
MIDLAND AREA WEATHER ROUNDUP
NATIONAL WEATHER SERVICE MIDLAND TX
900 PM CDT TUE OCT 17 2017

...IN SOUTHWEST TEXAS AND SOUTHEAST NEW MEXICO...

CITY           SKY/WX    TMP DP  RH WIND       PRES   REMARKS
ALPINE         CLEAR     68  36  30 S10       30.26S
ANDREWS        FAIR      61  42  50 S6        30.15S
ARTESIA        CLEAR     70  45  40 MISG      30.12R
BIG SPRING     CLEAR     64  40  42 SE3       30.16S
CARLSBAD       CLEAR     65  49  56 S8        30.11R
DRYDEN           N/A     62  45  53 E7        30.16R
FORT STOCKTON  CLEAR     68  38  33 S15       30.14R
GUAD PASS      CLEAR     70  40  33 S6        30.26R
HOBBS          CLEAR     59  45  58 S8        30.15S
LAMESA         FAIR      61  45  55 S7        30.15S
MARFA          CLEAR     64  42  44 S8        30.25R
MIDLAND AIRPK  CLEAR     68  39  33 S7        30.15S
MIDLAND INTL   CLEAR     66  41  40 S8        30.15R
ODESSA         NOT AVBL
PECOS          CLEAR     67  47  49 E9        30.11R
PRESIDIO       FAIR      76  38  24 E3        30.13R
SEMINOLE       CLEAR     60  43  53 S6        30.16S
SNYDER         CLEAR     66  37  34 SE12      30.13S
WINK           CLEAR     68  42  38 SE10      30.11R
$$
...OTHER STATIONS IN TEXAS...

CITY           SKY/WX    TMP DP  RH WIND       PRES   REMARKS
ABILENE        CLEAR     61  38  42 SE9       30.14R
AMARILLO       CLOUDY    65  40  39 S10       30.10R
AUSTIN         CLEAR     54  51  90 SW3       30.17R
BROWNSVILLE    CLEAR     71  66  84 NE3       30.15R
CORPUS CHRISTI CLEAR     65  55  70 SE6       30.16R
DALLAS FTW     CLEAR     66  42  41 SE6       30.13S
DEL RIO        CLEAR     66  46  48 E8        30.14R
EL PASO        MOCLDY    74  42  31 E5        30.14R
HOUSTON INT    CLEAR     61  50  67 CALM      30.17R
LUBBOCK        PTCLDY    67  38  34 S14       30.13R
SAN ANGELO     CLEAR     62  39  42 S7        30.15R
SAN ANTONIO    CLEAR     67  44  43 CALM      30.18R
WACO           CLEAR     58  44  60 S3        30.16R
WICHITA FALLS  CLEAR     59  47  64 S9        30.08R
$$
...OTHER LOCATIONS IN NEW MEXICO...

CITY           SKY/WX    TMP DP  RH WIND       PRES   REMARKS
ALAMOGORDO     CLOUDY    64  37  36 E6        30.17R
ALBUQUERQUE    PTCLDY    68  24  19 SW7       30.22R
CANNON AFB     CLEAR     59  40  49 SW6       30.16R
CLOVIS         CLEAR     56  42  59 SW7       30.15R
HOLLOMAN AFB   CLEAR     69  37  31 CALM      30.19R
ROSWELL        CLEAR     66  43  43 S9        30.12R
RUIDOSO        CLOUDY    57  27  30 SW9       30.33R
SANTA FE       CLEAR     50  30  46 N7        30.26R
TRUTH OR CONSE MOCLDY    72  37  28 SW5       30.18R
TUCUMCARI      CLEAR     65  43  44 SW13      30.07R
$$




USA.gov is the U.S. government's official web portal to all federal, state and local government web resources and services.